AO-07 1 07530U 74089B 17145.50417642 -.00000048 00000-0 -25964-4 0 9994 2 07530 101.6285 114.6372 0012226 008.4767 102.1139 12.53627091946012 UO-11 1 14781U 84021B 17145.56285974 .00000120 00000-0 21134-4 0 9998 2 14781 097.6993 192.1090 0006980 274.7207 085.3210 14.82894369765999 LO-19 1 20442U 90005G 17145.30953190 -.00000005 00000-0 14110-4 0 9991 2 20442 098.5748 082.0574 0011060 210.7494 149.3043 14.32859904428289 HUBBLE 1 20580U 90037B 17145.44488822 .00000583 00000-0 25009-4 0 9998 2 20580 028.4702 157.8003 0002506 283.6122 076.4183 15.08768591286848 MET-2/21 1 22782U 93055A 17145.33301036 .00000012 00000-0 -26874-5 0 9996 2 22782 082.5507 041.7250 0023270 132.7438 005.7757 13.83801945198530 AO-27 1 22825U 93061C 17145.45246810 -.00000011 00000-0 13412-4 0 9994 2 22825 098.8104 110.7567 0009205 043.4814 316.7092 14.29996364233883 IO-26 1 22826U 93061D 17145.48874028 -.00000008 00000-0 14588-4 0 9997 2 22826 098.8045 110.8781 0009587 034.3286 325.8514 14.30325029234081 FO-29 1 24278U 96046B 17145.61136470 -.00000037 00000-0 -21398-5 0 9994 2 24278 098.5673 031.8696 0351080 036.0427 326.3844 13.53076355025572 NOAA-15 1 25338U 98030A 17145.61834007 .00000065 00000-0 46415-4 0 9993 2 25338 098.7823 156.4837 0009370 272.5067 087.5040 14.25793973989529 GO-32 1 25397U 98043D 17145.42313861 -.00000016 00000-0 12041-4 0 9996 2 25397 098.6087 088.2415 0002411 076.4659 283.6788 14.23622150980330 ISS 1 25544U 98067A 17145.55443664 .00001584 00000-0 31400-4 0 9995 2 25544 051.6416 151.1276 0005248 190.8247 317.2527 15.53926869058237 NO-44 1 26931U 01043C 17145.45416396 -.00000018 00000-0 24769-4 0 9997 2 26931 067.0495 149.8508 0008053 268.8588 091.1590 14.30460831817090 SO-50 1 27607U 02058C 17145.56625917 .00000023 00000-0 23790-4 0 9996 2 27607 064.5548 194.6874 0030279 108.3525 252.0875 14.75324386775641 CO-55 1 27844U 03031E 17145.55962214 .00000060 00000-0 46681-4 0 9999 2 27844 098.6897 154.8954 0010800 057.2674 302.9543 14.22037424721061 CO-57 1 27848U 03031J 17145.55326298 .00000050 00000-0 42742-4 0 9992 2 27848 098.6990 155.1385 0010798 065.7179 294.5125 14.21652017720950 RS-22 1 27939U 03042A 17145.59323125 .00000129 00000-0 31703-4 0 9997 2 27939 097.9359 291.0664 0011713 301.1341 123.3885 14.66563082729861 NOAA-18 1 28654U 05018A 17145.59709078 -.00000014 00000-0 17968-4 0 9993 2 28654 099.1836 167.2581 0015203 132.5258 227.7199 14.12337669618970 CO-58 1 28895U 05043F 17145.40450020 .00000172 00000-0 41935-4 0 9993 2 28895 097.8623 308.7502 0016112 211.4791 148.5449 14.63391392617156 Falconsat-3 1 30776U 07006E 17145.55373535 .00002433 00000-0 78171-4 0 9990 2 30776 035.4354 210.1940 0002256 133.5479 226.5433 15.32141530564783 CO-65 1 32785U 08021C 17145.51180326 .00000292 00000-0 37517-4 0 9990 2 32785 097.5680 170.8187 0011725 240.0590 119.9463 14.87875016491521 AAUSAT2 1 32788U 08021F 17145.59373374 .00000738 00000-0 74559-4 0 9990 2 32788 097.5607 182.4285 0011422 198.5657 161.5149 14.93843297492209 DO-64 1 32789U 08021G 17145.61634437 .00001432 00000-0 10559-3 0 9995 2 32789 097.5614 204.3227 0013271 170.0721 190.0770 15.04799130493374 CO-66 1 32791U 08021J 17145.54856361 .00000461 00000-0 53008-4 0 9990 2 32791 097.5651 175.1480 0012320 223.3979 136.6270 14.90202239491771 RS-30 1 32953U 08025A 17145.50610694 .00000015 00000-0 39918-4 0 9996 2 32953 082.5041 253.7525 0018042 337.6470 022.3821 12.43076631408607 PRISM 1 33493U 09002B 17145.55098609 .00000959 00000-0 91829-4 0 9999 2 33493 098.1721 027.0284 0015839 152.7644 207.4417 14.95636574452398 NOAA-19 1 33591U 09005A 17145.52563670 .00000064 00000-0 59933-4 0 9990 2 33591 099.0907 112.0311 0013665 340.4263 019.6382 14.12181879427193 TISAT-1 1 36799U 10035E 17145.58566519 .00000380 00000-0 45080-4 0 9998 2 36799 098.0586 267.8589 0013372 046.7087 313.5243 14.90369825372218 JUGNU 1 37839U 11058B 17145.55164138 .00000323 00000-0 30580-4 0 9994 2 37839 019.9607 227.7310 0018852 294.3863 190.5744 14.12583482290385 SRMSAT 1 37841U 11058D 17145.50019348 .00000322 00000-0 31731-4 0 9992 2 37841 019.9721 269.2594 0011745 191.8520 235.9847 14.10574858289982 AO-71 1 37854U 11061E 17145.23467101 .00002185 00000-0 12409-3 0 9993 2 37854 101.7058 007.1887 0167768 142.9237 218.3704 15.03991985303039 HRBE 1 37855U 11061F 17145.56159995 .00002383 00000-0 13212-3 0 9992 2 37855 101.7186 005.5004 0180914 148.3606 212.8632 15.02951143303392 ALMASAT-1 1 38078U 12006B 17145.60450969 .00019897 37488-5 22591-3 0 9993 2 38078 069.4398 193.0665 0314512 323.7854 034.2374 15.21230314281359 HORYU-2 1 38340U 12025D 17145.57043882 .00000257 00000-0 46083-4 0 9992 2 38340 098.3763 148.6956 0011876 010.9358 349.2106 14.75325920259542 RS-40 1 38735U 12041C 17145.58477978 .00000015 00000-0 35679-4 0 9997 2 38735 082.4747 338.2828 0017661 078.3222 281.9838 12.42574443218869 BEESAT-3 1 39134U 13015E 17145.61648758 .00001373 00000-0 76709-4 0 9990 2 39134 064.8677 299.3098 0034694 274.2175 085.4986 15.17725865225673 BEESAT-2 1 39136U 13015G 17145.60111302 .00001166 00000-0 71840-4 0 9992 2 39136 064.8700 309.7352 0031839 285.7020 074.0593 15.15026651225465 ZACUBE-1 1 39417U 13066B 17145.58950688 .00000247 00000-0 37855-4 0 9992 2 39417 097.6315 188.9251 0058853 345.4148 014.5364 14.80694861189434 TRITON-1 1 39427U 13066M 17145.55250435 .00000263 00000-0 49880-4 0 9992 2 39427 097.6385 162.4252 0115803 061.7067 299.5766 14.67444782187537 GOMX-1 1 39430U 13066Q 17145.53833809 .00000256 00000-0 55067-4 0 9992 2 39430 097.6646 146.3027 0153403 114.3320 247.3985 14.58854606186631 LO-74 1 39440U 13066AA 17145.59381983 .00000272 00000-0 45197-4 0 9991 2 39440 097.6305 178.2842 0081129 014.8498 345.5067 14.75436780187561 AO-73 1 39444U 13066AE 17145.58031447 .00000338 00000-0 48639-4 0 9998 2 39444 097.6330 189.9410 0057932 342.2914 017.6279 14.81424371187673 SPROUT 1 39770U 14029E 17145.54212223 .00001047 00000-0 12532-3 0 9999 2 39770 097.8711 245.1363 0010357 049.4744 310.7378 14.86195115162776 DUCHIFAT-1 1 40021U 14033M 17145.26235232 .00000478 00000-0 55645-4 0 9999 2 40021 097.9200 058.3931 0013820 022.9851 337.1982 14.89861479159180 NANOSATCBR1 1 40024U 14033Q 17145.52284422 .00000419 00000-0 50317-4 0 9992 2 40024 097.9160 057.5773 0013066 023.4254 336.7556 14.89190985159176 EO-79 1 40025U 14033R 17145.55750236 .00000364 00000-0 45319-4 0 9992 2 40025 097.9143 056.6871 0013307 025.8139 334.3739 14.88399619158612 DTUSAT-2 1 40030U 14033W 17145.22077761 .00000349 00000-0 44116-4 0 9994 2 40030 097.9110 055.4877 0012664 021.9003 338.2752 14.88023399158524 EO-80 1 40032U 14033Y 17145.53097915 .00000332 00000-0 42339-4 0 9990 2 40032 097.9116 055.8038 0012577 021.3939 338.7801 14.87958143159074 ANTELSAT 1 40034U 14033AA 17145.60585228 .00000285 00000-0 50236-4 0 9991 2 40034 097.8623 030.2338 0059425 007.0171 353.1855 14.73682423157067 VELOX-1 1 40057U 14034E 17145.53723554 .00000490 00000-0 76910-4 0 9990 2 40057 098.1869 245.4144 0012198 126.6318 233.6019 14.77103060156411 DAURIA DX 1 1 40071U 14037C 17145.56566344 .00000181 00000-0 30766-4 0 9990 2 40071 098.3346 255.7367 0009438 120.8486 239.3657 14.81008317155622 UKUBE-1 1 40074U 14037F 17145.56249216 .00000431 00000-0 59546-4 0 9994 2 40074 098.3437 259.4673 0005746 118.1725 242.0072 14.83480419155824 HODOYOSHI-1 1 40299U 14070B 17145.44105704 .00001073 00000-0 49649-4 0 9996 2 40299 097.4033 228.5254 0013567 165.6051 254.8897 15.22212719141489 CHUBUSAT-1 1 40300U 14070C 17145.52294502 .00001270 00000-0 60468-4 0 9994 2 40300 097.3959 225.8311 0020373 176.7723 278.7403 15.20808268141345 QSAT-EOS 1 40301U 14070D 17145.46083395 .00002844 00000-0 12244-3 0 9990 2 40301 097.3895 225.7634 0027728 174.0147 241.5839 15.23085713141373 FIREBIRD FU3 1 40377U 15003B 17145.55910901 .00002498 00000-0 10918-3 0 9993 2 40377 099.1216 325.0077 0137598 077.5044 284.1537 15.15257420127579 FIREBIRD FU4 1 40378U 15003C 17145.55166372 .00002372 00000-0 10376-3 0 9998 2 40378 099.1218 325.0344 0137786 077.4352 284.2246 15.15279579127576 GRIFEX 1 40379U 15003D 17145.56612357 .00002225 00000-0 10305-3 0 9998 2 40379 099.1234 322.9272 0143575 084.6090 277.1496 15.12861196127457 NO-84 1 40654U 15025D 17145.55757706 .00007775 00000-0 15047-3 0 04555 2 40654 054.9972 337.7280 0180898 207.8165 151.3054 15.33072078076424 NO-83 1 40655U 15025E 17145.46415235 .00016072 00000-0 24934-3 0 05055 2 40655 054.9836 315.2236 0149655 220.4214 138.5620 15.42424828076710 DEORBITSAIL 1 40719U 15032E 17145.61547669 .00000469 00000-0 75449-4 0 9996 2 40719 097.9830 039.6530 0015459 212.2848 147.7416 14.76032100100999 NUDT-PHONESAT 1 40900U 15049B 17145.58182451 .00002439 00000-0 11871-3 0 9993 2 40900 097.4426 153.8273 0012563 309.8202 050.1926 15.19273482093026 XW-2A 1 40903U 15049E 17145.61991556 .00002361 00000-0 63942-4 0 9995 2 40903 097.4223 171.0453 0014582 354.1942 005.9132 15.38626387094174 XW-2C 1 40906U 15049H 17145.57885983 .00000857 00000-0 50040-4 0 9992 2 40906 097.4549 151.5221 0013707 296.1129 063.8692 15.14490770092816 XW-2D 1 40907U 15049J 17145.56377993 .00000931 00000-0 53938-4 0 9991 2 40907 097.4518 151.2754 0013039 294.3355 065.6515 15.14590917092818 LILACSAT-2 1 40908U 15049K 17145.53823770 .00000465 00000-0 29906-4 0 9998 2 40908 097.4620 151.0479 0014631 291.6828 068.2844 15.13090703092742 XW-2F 1 40910U 15049M 17145.57900047 .00001348 00000-0 74652-4 0 9997 2 40910 097.4539 151.9380 0013819 291.6382 068.3379 15.15449654092857 XW-2B 1 40911U 15049N 17145.56931737 .00000904 00000-0 52525-4 0 9999 2 40911 097.4561 151.6454 0012950 294.7204 065.2679 15.14554079092715 DCBB 1 40912U 15049P 17145.48368532 .00002162 00000-0 11088-3 0 9994 2 40912 097.4510 153.6182 0014069 284.4627 235.7993 15.17544244092841 TW-1C 1 40926U 15051B 17145.56465947 .00008765 00000-0 20474-3 0 9993 2 40926 097.2314 185.3029 0010050 248.9091 238.2298 15.42370930093433 TW-1A 1 40928U 15051D 17145.49084042 .00004450 00000-0 12925-3 0 9999 2 40928 097.2290 181.7138 0010971 282.4547 214.9990 15.35944397093212 IO-86 1 40931U 15052B 17145.21103359 .00000773 00000-0 18724-4 0 9995 2 40931 005.9994 036.5417 0013436 281.1767 078.6859 14.76529041089560 GomX-3 1 40949U 98067HA 16292.18357804 .08527750 12374-4 77882-3 0 9992 2 40949 51.6055 106.7696 0006699 286.1344 73.8944 16.38002265 59645 LQSat 1 40958U 15057A 17145.49107249 .00000052 00000-0 15823-4 0 9998 2 40958 097.9777 221.2050 0018982 135.6063 224.6672 14.72964175087772 AO-85 1 40967U 15058D 17145.39478389 .00000402 00000-0 65730-4 0 04956 2 40967 064.7775 288.0132 0172054 086.4706 275.6058 14.75414841073752 ATHENOXAT-1 1 41168U 15077C 17145.25028286 .00002717 00000-0 11695-3 0 9993 2 41168 014.9878 336.9996 0011831 057.0438 094.3461 15.11509047079562 ChubuSat-2 1 41338U 16012B 17145.52343999 .00000431 00000-0 27159-4 0 9997 2 41338 031.0032 256.1986 0013914 195.7482 164.2721 14.99729059069587 ChubuSat-3 1 41339U 16012C 17145.45475833 .00000437 00000-0 27481-4 0 9997 2 41339 031.0117 255.8178 0013816 202.6228 157.3809 14.99935753069555 Horyu-4 1 41340U 16012D 17145.57125112 .00000638 00000-0 42543-4 0 9993 2 41340 031.0050 252.7182 0014227 210.7795 149.2007 15.00574682069610 OUFTI-1 1 41458U 16025C 17145.61143148 .00003341 00000-0 18144-3 0 9994 2 41458 098.1885 181.8958 0175091 005.8027 354.5169 15.03101013059190 e-st@r-II 1 41459U 16025D 17145.63008761 .00003103 00000-0 16953-3 0 9990 2 41459 098.1878 181.8698 0175312 005.8252 354.4954 15.02944200059182 AAUSAT4 1 41460U 16025E 17145.37443411 .00004525 00000-0 24532-3 0 9999 2 41460 098.1809 181.6871 0168122 004.9963 355.2870 15.03798765059167 MinXSS 1 41474U 98067HU 17125.52237589 .05724416 12300-4 86147-3 0 9995 2 41474 051.6449 208.6967 0008167 329.0747 030.9230 16.33400422055623 CADRE 1 41475U 98067HV 17003.74787607 .12518598 12537-4 55989-3 0 9998 2 41475 51.6110 110.0165 0004040 312.3134 47.7551 16.43344525 36494 NODES 1 1 41477U 98067HX 17145.38405841 .00044732 00000-0 24217-3 0 9993 2 41477 051.6276 121.5755 0004751 040.4595 319.6759 15.79595089058463 NODES 2 1 41478U 98067HY 17145.54525184 .00046407 00000-0 25600-3 0 9993 2 41478 051.6311 121.1688 0004392 040.9685 319.1646 15.79165575058486 LO-87 1 41557U 16033B 17145.27504143 .00001701 00000-0 66896-4 0 9997 2 41557 097.4639 224.7921 0016099 089.2591 271.0492 15.26963141054932 NuSat2 1 41558U 16033C 17145.37165110 .00001705 00000-0 67312-4 0 9994 2 41558 097.4664 224.9386 0015553 087.7751 272.5269 15.26837233054944 Lapan A3 1 41603U 16040E 17145.59287383 .00000236 00000-0 14378-4 0 9996 2 41603 097.4628 207.8436 0014214 147.3975 342.4133 15.19335802051227 Swayam 1 41607U 16040J 17145.16597478 .00001930 00000-0 90767-4 0 9990 2 41607 097.4620 207.6703 0015361 151.4046 208.8035 15.20682783051105 Pratham 1 41783U 16059A 17145.17807148 .00000090 00000-0 26980-4 0 9996 2 41783 098.1686 206.7875 0032612 231.4922 128.3355 14.62833374035236 AlSat 1N 1 41789U 16059G 17145.59570655 .00000120 00000-0 32160-4 0 9999 2 41789 098.1678 207.6562 0027371 224.0715 135.8313 14.64042608035309 ScatSat 1 41790U 16059H 17145.56213059 .00000036 00000-0 20153-4 0 9995 2 41790 098.0669 196.5656 0010624 210.4829 149.5749 14.50107255034981 TY-1 1 41844U 16066D 17145.53569564 .00001662 00000-0 75717-4 0 9997 2 41844 097.4048 153.0333 0015214 323.9094 151.4401 15.21987162029892 CAS-2T 1 41845U 16066E 17145.42974868 .00000193 00000-0 40789-4 0 9992 2 41845 098.7770 160.5149 0365909 315.9388 041.3172 14.37749564028229 Pegasus-1 1 41846U 16066F 17145.61131591 .00000586 00000-0 10090-3 0 9999 2 41846 098.7813 160.5060 0369001 316.6258 040.6422 14.37001094028231 STARS-C 1 41895U 98067KR 17145.61423765 .00019385 00000-0 23639-3 0 9991 2 41895 051.6370 147.3468 0002797 240.3094 119.7621 15.60491526024463 Tancredo 1 1 41931U 98067KT 17145.45351296 .00036132 00000-0 35857-3 0 9997 2 41931 051.6355 146.2585 0003393 165.8172 194.2919 15.65411757020036 ITF-2 1 41932U 98067KU 17145.38666145 .00009829 00000-0 13193-3 0 9994 2 41932 051.6392 149.5850 0004749 174.6394 185.4651 15.58629304019987 AOBA-V3LOX3 1 41935U 98067KX 17145.57341763 .00010476 00000-0 13887-3 0 9994 2 41935 051.6387 148.5802 0004040 178.4925 181.6081 15.58881495020119 OSNSAT 1 41939U 98067KZ 17145.37042610 .00021400 00000-0 24312-3 0 9999 2 41939 051.6369 147.9635 0004665 175.3979 184.7058 15.62263212019367 EO-88 1 42017U 17008BX 17145.56918378 .00001823 00000-0 80872-4 0 9998 2 42017 097.4968 207.0680 0005109 309.7388 050.3398 15.22880980015046 SOMP2 1 42700U 98067LH 17145.48086091 .00012333 00000-0 18648-3 0 9999 2 42700 051.6414 151.4165 0005721 239.7554 251.2399 15.55105135001417 HAVELSAT 1 42701U 98067LJ 17145.54782642 .00011087 00000-0 16843-3 0 9992 2 42701 051.6403 151.0847 0005541 238.5164 267.5503 15.55098267001406 Columbia 1 42702U 98067LK 17145.53576571 .00020033 00000-0 29711-3 0 9993 2 42702 051.6430 151.1491 0005188 232.7086 206.4563 15.55205825001339 PHOENIX 1 42706U 98067LP 17145.48135593 .00011410 00000-0 17324-3 0 9992 2 42706 051.6436 151.4288 0001559 189.6230 301.4555 15.55086088001318 X-CubeSat 1 42707U 98067LQ 17145.15859882 .00011152 00000-0 16972-3 0 9992 2 42707 051.6428 153.0385 0000486 269.6192 212.6216 15.55047424001251 qbee 1 42708U 98067LR 17145.48160677 .00011706 00000-0 17779-3 0 9997 2 42708 051.6416 151.4299 0000672 177.1054 314.0871 15.55047015001263 ZA-AeroSat 1 42713U 98067LU 17145.48281698 .00010966 00000-0 16790-3 0 9999 2 42713 051.6375 151.4396 0002770 158.5008 332.8094 15.54901663000973 LINK 1 42714U 98067LV 17145.09353598 .00006310 00000-0 10000-3 0 9992 2 42714 051.6395 153.3952 0003696 158.3910 311.0232 15.54814119001022 UPSat 1 42716U 98067LX 17145.08529581 .00006328 00000-0 10000-3 0 9999 2 42716 051.6547 153.4524 0008528 176.3337 248.5177 15.54875754001047 SpaceCube 1 42717U 98067LY 17145.48509953 .00006334 00000-0 10000-3 0 9992 2 42717 051.6380 151.4236 0001625 239.6594 264.3586 15.54909144000343 Hoopoe 1 42718U 98067LZ 17145.09277382 .00006347 00000-0 10000-3 0 9992 2 42718 051.6355 153.3862 0004129 247.0421 220.3543 15.54963077000289 /EX
